Weather History for Bay City, TX

Change the Weather History Date:

Monday, November 12, 2012

  Actual Average (KLBX) Record (KLBX)
Temperature  
Mean Temperature 60 °F -  
Max Temperature 71 °F 70 °F 84 °F (2003)
Min Temperature 50 °F 54 °F 46 °F (2004)
Degree Days  
Heating Degree Days 4    
Growing Degree Days 10 (Base 50)    
Moisture  
Dew Point 45 °F    
Average Humidity 60    
Maximum Humidity 100    
Minimum Humidity 25    
Precipitation  
Precipitation 0.03 in - - ()
Sea Level Pressure  
Sea Level Pressure 30.30 in    
Wind  
Wind Speed 11 mph (North)    
Max Wind Speed 21 mph    
Max Gust Speed 26 mph    
Visibility 10 miles    
Events Rain    
Averages and records for this station are not official NWS values.
T = Trace of Precipitation, MM = Missing Value Source: NWS Daily Summary

Daily Weather History Graph

Daily Weather History Graph

Search for Another Location

Airport:

Trip Planner

Search our weather history database for the weather conditions in past years. The results will help you decide how hot, cold, wet, or windy it might be!

Date:

Astronomy

Nov. 12, 2012 Rise Set
Actual Time 6:44 AM CST 5:30 PM CST
Civil Twilight 6:19 AM CST 5:55 PM CST
Nautical Twilight 5:51 AM CST 6:23 PM CST
Astronomical Twilight 5:23 AM CST 6:51 PM CST
Moon 5:15 AM CST (11/12) 4:34 PM CST (11/12)
Length of Visible Light 11h 35m
Length of Day
10h 45m
Waning Crescent, 2% of the Moon is Illuminated
Nov 12
Waning Crescent
Nov 13
New
Nov 20
First Quarter
Nov 28
Full
Dec 6
Last Quarter

Hourly Weather History & Observations

Time (CST) Temp. Dew Point Humidity Pressure Visibility Wind Dir Wind Speed Gust Speed Precip Events Conditions
12:15 AM 60.3 °F 60.3 °F 100% 30.13 in 7.0 mi North 9.2 mph - 0.02 in Rain Light Rain
12:35 AM 60.3 °F 60.3 °F 100% 30.13 in 10.0 mi North 11.5 mph 18.4 mph 0.03 in   Overcast
12:55 AM 60.4 °F 60.4 °F 100% 30.13 in 10.0 mi NNE 11.5 mph - 0.03 in Rain Rain
1:15 AM 60.1 °F 60.1 °F 100% 30.14 in 10.0 mi NNE 9.2 mph 16.1 mph N/A   Overcast
1:35 AM 60.3 °F 60.1 °F 99% 30.14 in 10.0 mi NNE 9.2 mph - N/A Rain Light Rain
1:55 AM 60.3 °F 60.3 °F 100% 30.15 in 10.0 mi NNE 3.5 mph - N/A   Overcast
2:15 AM 60.3 °F 60.3 °F 100% 30.16 in 10.0 mi North 10.4 mph - N/A   Overcast
2:35 AM 60.3 °F 60.1 °F 99% 30.15 in 10.0 mi North 11.5 mph 18.4 mph N/A   Mostly Cloudy
2:55 AM 60.1 °F 59.2 °F 97% 30.14 in 10.0 mi North 11.5 mph 17.3 mph N/A   Scattered Clouds
3:15 AM 59.0 °F 55.4 °F 88% 30.15 in 10.0 mi North 16.1 mph 20.7 mph N/A   Scattered Clouds
3:35 AM 59.9 °F 56.8 °F 90% 30.16 in 10.0 mi North 12.7 mph 18.4 mph N/A   Clear
3:55 AM 59.9 °F 57.6 °F 92% 30.16 in 10.0 mi North 15.0 mph 23.0 mph N/A   Scattered Clouds
4:15 AM 59.7 °F 57.2 °F 91% 30.17 in 10.0 mi NNE 11.5 mph 19.6 mph N/A   Scattered Clouds
4:35 AM 59.5 °F 54.7 °F 84% 30.18 in 10.0 mi North 11.5 mph 20.7 mph N/A   Clear
4:55 AM 59.0 °F 54.9 °F 86% 30.20 in 10.0 mi North 10.4 mph - N/A   Scattered Clouds
5:15 AM 59.0 °F 55.4 °F 88% 30.21 in 10.0 mi North 10.4 mph - N/A   Mostly Cloudy
5:35 AM 59.9 °F 55.9 °F 87% 30.22 in 10.0 mi NNE 10.4 mph 18.4 mph N/A   Overcast
5:55 AM 59.0 °F 53.6 °F 82% 30.23 in 10.0 mi NNE 16.1 mph 20.7 mph N/A   Mostly Cloudy
6:15 AM 59.5 °F 54.5 °F 83% 30.25 in 10.0 mi NNE 11.5 mph 17.3 mph N/A   Mostly Cloudy
6:35 AM 59.7 °F 54.0 °F 81% 30.27 in 10.0 mi NNE 15.0 mph 20.7 mph N/A   Overcast
6:55 AM 59.7 °F 52.9 °F 78% 30.26 in 10.0 mi NNE 15.0 mph 21.9 mph N/A   Overcast
7:15 AM 59.4 °F 52.2 °F 77% 30.28 in 10.0 mi NNE 10.4 mph 17.3 mph N/A   Mostly Cloudy
7:35 AM 59.9 °F 52.2 °F 76% 30.29 in 10.0 mi NNE 15.0 mph 21.9 mph N/A   Overcast
7:55 AM 60.3 °F 51.8 °F 74% 30.29 in 10.0 mi NNE 16.1 mph 23.0 mph N/A   Overcast
8:15 AM 61.2 °F 51.6 °F 71% 30.31 in 10.0 mi North 15.0 mph 20.7 mph N/A   Mostly Cloudy
8:35 AM 60.8 °F 50.0 °F 68% 30.32 in 10.0 mi North 11.5 mph 18.4 mph N/A   Scattered Clouds
8:55 AM 62.1 °F 50.2 °F 65% 30.34 in 10.0 mi North 16.1 mph 23.0 mph N/A   Scattered Clouds
9:15 AM 63.5 °F 50.0 °F 61% 30.34 in 10.0 mi NNE 12.7 mph 23.0 mph N/A   Scattered Clouds
9:35 AM 64.8 °F 50.5 °F 60% 30.34 in 10.0 mi North 18.4 mph 25.3 mph N/A   Scattered Clouds
9:55 AM 65.5 °F 49.3 °F 56% 30.36 in 10.0 mi NNW 15.0 mph 19.6 mph N/A   Scattered Clouds
10:15 AM 66.6 °F 49.3 °F 54% 30.36 in 10.0 mi North 15.0 mph - N/A   Mostly Cloudy
10:35 AM 64.4 °F 50.0 °F 59% 30.35 in 10.0 mi North 15.0 mph 19.6 mph N/A   Scattered Clouds
10:55 AM 66.2 °F 49.3 °F 54% 30.35 in 10.0 mi North 12.7 mph 24.2 mph N/A   Scattered Clouds
11:15 AM 67.1 °F 46.8 °F 48% 30.35 in 10.0 mi NNE 13.8 mph 24.2 mph N/A   Clear
11:35 AM 68.0 °F 41.0 °F 37% 30.35 in 10.0 mi NNE 12.7 mph 25.3 mph N/A   Clear
11:55 AM 68.9 °F 40.5 °F 35% 30.34 in 10.0 mi North 17.3 mph 21.9 mph N/A   Clear
12:15 PM 70.0 °F 39.9 °F 33% 30.34 in 10.0 mi NNE 15.0 mph 23.0 mph N/A   Clear
12:35 PM 69.8 °F 35.6 °F 28% 30.34 in 10.0 mi North 16.1 mph 25.3 mph N/A   Mostly Cloudy
12:55 PM 70.7 °F 36.7 °F 29% 30.32 in 10.0 mi North 20.7 mph 26.5 mph N/A   Scattered Clouds
1:15 PM 71.4 °F 36.1 °F 28% 30.31 in 10.0 mi North 18.4 mph 24.2 mph N/A   Clear
1:35 PM 71.1 °F 34.9 °F 27% 30.31 in 10.0 mi NNE 15.0 mph 24.2 mph N/A   Clear
1:55 PM 71.2 °F 34.5 °F 26% 30.31 in 10.0 mi NNE 16.1 mph 23.0 mph N/A   Clear
2:15 PM 71.1 °F 35.1 °F 27% 30.31 in 10.0 mi North 18.4 mph 21.9 mph N/A   Clear
2:35 PM 70.9 °F 34.5 °F 26% 30.31 in 10.0 mi North 18.4 mph 23.0 mph N/A   Clear
2:55 PM 70.7 °F 33.3 °F 25% 30.32 in 10.0 mi North 17.3 mph 25.3 mph N/A   Clear
3:15 PM 70.3 °F 33.3 °F 25% 30.32 in 10.0 mi North 12.7 mph 21.9 mph N/A   Clear
3:35 PM 69.8 °F 32.0 °F 25% 30.32 in 10.0 mi North 12.7 mph 23.0 mph N/A   Clear
3:55 PM 69.8 °F 33.3 °F 26% 30.32 in 10.0 mi North 11.5 mph - N/A   Clear
4:15 PM 68.9 °F 32.2 °F 26% 30.33 in 10.0 mi NNE 10.4 mph - N/A   Scattered Clouds
4:35 PM 67.8 °F 32.2 °F 27% 30.34 in 10.0 mi North 13.8 mph 19.6 mph N/A   Scattered Clouds
4:55 PM 67.1 °F 32.7 °F 28% 30.34 in 10.0 mi North 10.4 mph - N/A   Clear
5:15 PM 65.3 °F 34.0 °F 31% 30.34 in 10.0 mi North 8.1 mph - N/A   Clear
5:35 PM 63.0 °F 34.3 °F 34% 30.34 in 10.0 mi North 8.1 mph - N/A   Clear
5:55 PM 61.2 °F 34.3 °F 37% 30.34 in 10.0 mi North 6.9 mph - N/A   Clear
6:15 PM 59.0 °F 36.0 °F 42% 30.35 in 10.0 mi North 6.9 mph - N/A   Clear
6:35 PM 57.2 °F 37.0 °F 47% 30.36 in 10.0 mi NNW 4.6 mph - N/A   Clear
6:55 PM 57.0 °F 36.9 °F 47% 30.37 in 10.0 mi NNW 4.6 mph - N/A   Clear
7:15 PM 55.8 °F 36.7 °F 49% 30.38 in 10.0 mi North 6.9 mph - N/A   Clear
7:35 PM 54.3 °F 37.0 °F 52% 30.38 in 10.0 mi North 5.8 mph - N/A   Clear
7:55 PM 53.8 °F 36.7 °F 52% 30.40 in 10.0 mi North 5.8 mph - N/A   Clear
8:15 PM 53.2 °F 37.0 °F 54% 30.40 in 10.0 mi North 4.6 mph - N/A   Clear
8:35 PM 52.2 °F 37.2 °F 57% 30.40 in 10.0 mi North 6.9 mph - N/A   Clear
8:55 PM 51.1 °F 37.6 °F 60% 30.40 in 10.0 mi North 8.1 mph - N/A   Clear
9:15 PM 51.6 °F 37.6 °F 59% 30.40 in 10.0 mi North 6.9 mph - N/A   Clear
9:35 PM 51.4 °F 37.4 °F 59% 30.41 in 10.0 mi North 6.9 mph - N/A   Clear
9:55 PM 51.1 °F 37.4 °F 60% 30.41 in 10.0 mi North 6.9 mph - N/A   Clear
10:15 PM 51.1 °F 37.4 °F 60% 30.42 in 10.0 mi North 6.9 mph - N/A   Clear
10:35 PM 51.3 °F 37.0 °F 58% 30.41 in 10.0 mi North 9.2 mph - N/A   Clear
10:55 PM 51.8 °F 36.7 °F 56% 30.41 in 10.0 mi North 9.2 mph - N/A   Clear
11:15 PM 51.4 °F 36.7 °F 57% 30.42 in 10.0 mi North 9.2 mph - N/A   Clear
11:35 PM 50.9 °F 36.9 °F 59% 30.41 in 10.0 mi North 8.1 mph - N/A   Clear
11:55 PM 50.5 °F 37.0 °F 60% 30.41 in 10.0 mi North 9.2 mph - N/A   Clear